Volver al catálogo

STARLINK-1777

ActivoComunicacionesVLEO
NORAD 47122·PAYLOAD·🇺🇸 United States

Lanzado Nov 25, 2020 desde Cape Canaveral Space Force Station

Loading…

Próximos Pases (próximas 24 horas)

TLE

ActualizadoSource: CelesTrak SupGP

Época: Sep 14, 2026, 23:38 UTC

1 47122C 20088A   26257.98520833  .00588900  00000+0  94476-3 0  2573
2 47122  53.0347  66.2598 0001852  67.3357 317.4089 16.02558909    11

Sigue STARLINK-1777 en tiempo real con AllMySat

Download on the App Store